Location: Wildlife_Club
(35.6000°N, 81.4330°W)
Time: 10:44:23
(UTC-04:00)

A-11 Canister half - Pass Details

Date: 03 July 2019
Orbit: 1514 x 1685 km, 47.2° (Epoch: 16 July)

Event Time Altitude Azimuth Distance (km) Brightness Sun altitude
Rises 17:33:38 0° 292° (WNW) 4,787 12.5 36.2°
Reaches altitude 10° 17:37:56 10° 276° (W) 3,767 12.5 35.4°
Maximum altitude 17:43:57 19° 236° (SW) 3,075 11.6 34.1°
Drops below altitude 10° 17:49:52 10° 196° (SSW) 3,687 11.2 32.9°
Sets 17:54:04 0° 179° (S) 4,650 11.5 32.1°
